CW8428 Weather Reports


Display with metric or nautical units.
time (UTC)temp
F
wind
direction
speed
MPH
gust
MPH
rain 1hr
in
rain 24hr
in
rain mn
in
humidity
%
barometer
mb
20260503035623 54 140 1.0 3.0 0.00 0.00 0.00 41 1017.5
20260503034616 55 142 2.0 4.0 0.00 0.00 0.00 41 1017.3
20260503033622 56 119 1.0 3.0 0.00 0.00 0.00 41 1017.2
20260503032630 57 119 0.0 4.0 0.00 0.00 0.00 39 1017.0
20260503031621 57 113 3.0 6.0 0.00 0.00 0.00 38 1016.9
20260503030634 58 218 2.0 5.0 0.00 0.00 0.00 36 1016.8
20260503025613 59 215 3.0 7.0 0.00 0.00 0.00 33 1016.7
20260503024621 60 259 1.0 3.0 0.00 0.00 0.00 33 1016.7
20260503023645 62 259 2.0 8.0 0.00 0.00 0.00 30 1016.6
20260503022651 64 304 4.0 9.0 0.00 0.00 0.00 25 1016.6
20260503021622 65 327 4.0 9.0 0.00 0.00 0.00 24 1016.5
20260503020631 65 5 5.0 8.0 0.00 0.00 0.00 25 1016.3
20260503015613 66 302 4.0 9.0 0.00 0.00 0.00 24 1016.2
20260503014625 66 317 4.0 9.0 0.00 0.00 0.00 25 1016.3
20260503013619 66 294 4.0 9.0 0.00 0.00 0.00 26 1016.3
20260503012629 66 306 5.0 10.0 0.00 0.00 0.00 27 1016.3
20260503011620 67 290 6.0 9.0 0.00 0.00 0.00 24 1016.3
20260503010615 66 282 5.0 9.0 0.00 0.00 0.00 30 1016.3
20260503005635 67 271 7.0 10.0 0.00 0.00 0.00 27 1016.3
20260503004622 67 285 9.0 13.0 0.00 0.00 0.00 24 1016.4
20260503003631 68 268 5.0 11.0 0.00 0.00 0.00 25 1016.4
20260503002640 70 277 3.0 8.0 0.00 0.00 0.00 20 1016.4
20260503001632 70 315 6.0 11.0 0.00 0.00 0.00 17 1016.5
20260503000622 70 323 6.0 11.0 0.00 0.00 0.00 19 1016.5
20260502235624 70 296 6.0 13.0 0.00 0.00 0.00 18 1016.5
20260502234634 69 297 7.0 14.0 0.00 0.00 0.00 20 1016.5
20260502233627 70 277 9.0 13.0 0.00 0.00 0.00 22 1016.5
20260502232616 70 261 8.0 16.0 0.00 0.00 0.00 21 1016.7
20260502231626 70 270 9.0 13.0 0.00 0.00 0.00 24 1016.7
20260502230617 70 268 9.0 13.0 0.00 0.00 0.00 22 1016.8
20260502225623 70 259 9.0 14.0 0.00 0.00 0.00 22 1017.0
20260502224632 70 215 5.0 11.0 0.00 0.00 0.00 18 1017.0
20260502223643 70 250 7.0 13.0 0.00 0.00 0.00 17 1017.1
20260502222632 70 265 7.0 11.0 0.00 0.00 0.00 18 1017.2
20260502221647 70 253 7.0 12.0 0.00 0.00 0.00 20 1017.3
20260502220616 70 277 5.0 13.0 0.00 0.00 0.00 19 1017.5
20260502215637 70 279 4.0 13.0 0.00 0.00 0.00 15 1017.7
20260502214625 70 355 7.0 13.0 0.00 0.00 0.00 18 1017.7
20260502213653 70 341 9.0 16.0 0.00 0.00 0.00 20 1017.9
20260502212645 70 311 8.0 18.0 0.00 0.00 0.00 21 1018.1
20260502211632 70 268 7.0 14.0 0.00 0.00 0.00 22 1018.2
20260502210620 70 314 7.0 12.0 0.00 0.00 0.00 19 1018.4
20260502205620 70 298 5.0 9.0 0.00 0.00 0.00 20 1018.4
20260502204652 70 307 5.0 11.0 0.00 0.00 0.00 19 1018.5
20260502203620 70 355 6.0 11.0 0.00 0.00 0.00 17 1018.7
20260502202628 69 308 5.0 11.0 0.00 0.00 0.00 19 1018.9
20260502201614 69 296 7.0 12.0 0.00 0.00 0.00 21 1019.0
20260502200627 69 275 2.0 9.0 0.00 0.00 0.00 20 1019.0
20260502195626 69 350 5.0 12.0 0.00 0.00 0.00 19 1019.2
20260502194615 68 317 7.0 12.0 0.00 0.00 0.00 20 1019.3
20260502193622 68 270 10.0 15.0 0.00 0.00 0.00 22 1019.4
20260502192614 68 215 3.0 12.0 0.00 0.00 0.00 22 1019.5
20260502191622 67 360 3.0 11.0 0.00 0.00 0.00 20 1019.6
20260502190630 67 295 5.0 12.0 0.00 0.00 0.00 23 1019.8
20260502185631 67 355 3.0 10.0 0.00 0.00 0.00 26 1020.0
20260502184623 67 290 2.0 9.0 0.00 0.00 0.00 24 1020.1
20260502183632 66 306 4.0 6.0 0.00 0.00 0.00 22 1020.3
20260502182620 64 269 4.0 8.0 0.00 0.00 0.00 27 1020.4
20260502181612 63 244 3.0 6.0 0.00 0.00 0.00 29 1020.6
20260502180614 62 270 3.0 7.0 0.00 0.00 0.00 32 1020.8
20260502163620 53 283 2.0 4.0 0.00 0.00 0.00 39 1021.9
20260502162630 52 286 2.0 4.0 0.00 0.00 0.00 41 1022.0
20260502161620 51 292 3.0 5.0 0.00 0.00 0.00 42 1022.1
20260502160615 50 276 0.0 2.0 0.00 0.00 0.00 44 1022.2
20260502151622 45 283 2.0 4.0 0.00 0.00 0.00 52 1022.8
20260502150630 44 280 1.0 2.0 0.00 0.00 0.00 55 1022.9
20260502130617 33 266 1.0 2.0 0.00 0.00 0.00 78 1023.1
20260502123620 32 266 0.0 3.0 0.00 0.00 0.00 80 1023.0
20260502122630 32 266 1.0 3.0 0.00 0.00 0.00 78 1022.9
20260502121641 32 266 1.0 2.0 0.00 0.00 0.00 79 1022.8
20260502120630 32 266 0.0 3.0 0.00 0.00 0.00 79 1022.8
20260502115616 32 265 1.0 4.0 0.00 0.00 0.00 78 1022.8
20260502114624 32 265 1.0 3.0 0.00 0.00 0.00 78 1022.7
20260502113631 33 265 0.0 0.0 0.00 0.00 0.00 78 1022.6
20260502112620 33 265 2.0 3.0 0.00 0.00 0.00 78 1022.6
20260502111615 34 265 0.0 4.0 0.00 0.00 0.00 77 1022.6
20260502110624 34 265 1.0 4.0 0.00 0.00 0.00 77 1022.6
20260502105646 34 261 0.0 1.0 0.00 0.00 0.00 78 1022.5
20260502104650 34 261 0.0 1.0 0.00 0.00 0.00 78 1022.5
20260502103637 34 261 1.0 2.0 0.00 0.00 0.00 79 1022.6
20260502102630 34 261 0.0 3.0 0.00 0.00 0.00 79 1022.5
20260502100632 34 261 2.0 3.0 0.00 0.00 0.00 78 1022.3
20260502090625 36 255 1.0 2.0 0.00 0.00 0.00 73 1021.8
20260502070628 42 119 2.0 6.0 0.00 0.00 0.00 59 1021.8
20260502065629 43 123 3.0 6.0 0.00 0.00 0.00 58 1021.9
20260502064617 43 42 1.0 2.0 0.00 0.00 0.00 58 1021.7
20260502063627 44 40 0.0 1.0 0.00 0.00 0.00 56 1021.6
20260502062621 44 40 2.0 5.0 0.00 0.00 0.00 57 1021.6
20260502061631 44 113 3.0 7.0 0.00 0.00 0.00 57 1021.5
20260502060630 44 150 2.0 3.0 0.00 0.00 0.00 57 1021.3
20260502055628 45 120 3.0 4.0 0.00 0.00 0.00 55 1021.2
20260502054617 45 119 2.0 4.0 0.00 0.00 0.00 55 1021.2
20260502053628 46 121 3.0 7.0 0.00 0.00 0.00 54 1021.1
20260502052615 46 123 4.0 8.0 0.00 0.00 0.00 53 1021.1
20260502051624 47 112 2.0 4.0 0.00 0.00 0.00 53 1021.0
20260502050633 47 111 2.0 6.0 0.00 0.00 0.00 52 1020.9
20260502045637 47 116 1.0 4.0 0.00 0.00 0.00 53 1020.9
20260502044623 48 117 3.0 6.0 0.00 0.00 0.00 53 1020.9
20260502043650 48 130 3.0 5.0 0.00 0.00 0.00 52 1020.8
20260502042619 49 129 3.0 7.0 0.00 0.00 0.00 50 1020.6
20260502041631 50 104 4.0 7.0 0.00 0.00 0.00 50 1020.6
20260502040619 51 126 3.0 4.0 0.00 0.00 0.00 49 1020.5